Location: Castifao
(42.5040°N, 9.1124°E)
Time: 03:38:17
(UTC+00:00)

Cosmos 2219 - Pass Details

Date: 23 January 2020
Orbit: 833 x 860 km, 71.1° (Epoch: 17 February)

Event Time Altitude Azimuth Distance (km) Brightness Sun altitude
Rises 17:41:22 0° 219° (SW) 3,367 7.2 -14.1°
Reaches altitude 10° 17:43:53 10° 225° (SW) 2,438 6.5 -14.5°
Maximum altitude 17:49:16 49° 299° (WNW) 1,072 4.1 -15.5°
Drops below altitude 10° 17:54:45 10° 15° (NNE) 2,463 5.4 -16.5°
Enters shadow 17:56:27 - 19° (NNE) 3,090 5.8 -16.8°
